Regional Weather Roundup
Issued by NWS

Home | Current Version | Previous Version | Graphics & Text | Print | Product List | Glossary On
Versions: 1 2 3 4 5 6 7 8 9 10 11 12 13 14 15 16 17 18 19 20 21 22 23 24 25 26 27 28 29 30 31 32 33 34 35 36 37 38 39 40 41 42 43 44 45 46 47 48 49 50
000
ASUS44 KMEG 101200
RWRTN
TENNESSEE HOURLY STATE WEATHER ROUNDUP
NATIONAL WEATHER SERVICE MEMPHIS TN
700 AM CDT THU JUL 10 2014

TNZ002-004-019-021-049-052-054-088>092-101300-
WEST TENNESSEE

CITY           SKY/WX    TMP DP  RH WIND       PRES   REMARKS
MEMPHIS INTL   FAIR      73  70  90 CALM      30.06R
NWS MEMPHIS      N/A     69 N/A N/A MISG        N/A
JACKSON        FAIR      66  64  93 CALM      30.05S
DYERSBURG      FAIR      66  59  77 CALM      30.06R
UNION CITY     SUNNY     66  64  94 CALM      30.05R
LEXINGTON      CLOUDY    64  63  94 CALM      30.05R VSB 0
$$

TNZ008-025-027-028-033-062-065-066-101300-
NORTH MIDDLE TENNESSEE

CITY           SKY/WX    TMP DP  RH WIND       PRES   REMARKS
NASHVILLE      PTSUNNY   69  66  90 CALM      30.07R
CLARKSVILLE    FAIR      65  62  90 CALM      30.06S
COOKEVILLE     CLOUDY    70  70 100 CALM      30.08S VSB 0
CROSSVILLE     HAZE      71  66  84 CALM      30.13R VSB<1/4
$$

TNZ061-075-076-078-094-096-097-101300-
SOUTH MIDDLE TENNESSEE

CITY           SKY/WX    TMP DP  RH WIND       PRES   REMARKS
TULLAHOMA      CLOUDY    70  70 100 CALM      30.10R VSB 0
WINCHESTER     CLOUDY    70  70 100 CALM      30.08S
MCMINNVILLE    CLOUDY    72  72 100 CALM      30.09S
COLUMBIA       CLOUDY    70  70 100 CALM      30.05S VSB 1/4
$$

TNZ017-018-042-046-047-101300-
NORTHEAST TENNESSEE

CITY           SKY/WX    TMP DP  RH WIND       PRES   REMARKS
TRI CITIES     PTSUNNY   69  65  86 CALM      30.12R
ELIZABETHTON   CLOUDY    66  64  94 E3        30.13R
$$

TNZ012-013-036-069-073-074-101300-
CENTRAL EAST TENNESSEE

CITY           SKY/WX    TMP DP  RH WIND       PRES   REMARKS
KNOXVILLE      PTSUNNY   69  68  96 NE3       30.08R
OAK RIDGE      CLOUDY    69  68  96 CALM      30.10R FOG
$$

TNZ083-085-099-101300-
SOUTHEAST TENNESSEE

CITY           SKY/WX    TMP DP  RH WIND       PRES   REMARKS
CHATTANOOGA    CLOUDY    72  69  90 CALM      30.08R FOG
$$

SKY/WX REPORTED AS FAIR MEANS FEW OR NO CLOUDS BELOW
12 THOUSAND FEET.



USA.gov is the U.S. government's official web portal to all federal, state and local government web resources and services.